Starlink 4467

operational
NORAD ID: 53686 Int'l Des: 2022-105 Owner: SPXS Country: US Constellation: starlink
LEOCIRCULARRETROGRADESSO

Über Starlink 4467

Beschreibung wird geladen...

Live-Position

3D-Globus wird geladen...

Nächste Überflüge

Höhenverlauf

Altitude vs Time

uPlot chart will show altitude changes over time

Zweizeiliger Elementsatz

1 53686U 22105AQ 25306.39078568 .00002658 00000-0 21137-3 0 9998
2 53686 97.6008 185.6416 0004128 80.9943 279.1748 15.01264496174142
Epoch: 2. Nov. 2025 • Age: 31 hours

Aktueller Status

Höhe 583.8 km
Geschwindigkeit 7.57 km/s
Subsatellitenpunkt -47.27°S, 63.73°E
Startdatum 31. Aug. 2022
Alter 3.1 years
Typ internet

Technische Details

Klassifizierung Payload
Masse 300.00 kg
Trockenmasse 290.00 kg
Gesamtmasse 300.00 kg
Länge 0.20 m
Durchmesser 2.80 m
Spannweite 9.00 m
Form Box + pan
Hersteller SPXS
Bus-Typ Starlink
Phasenstatus In Orbit
Besitzer/Staat SPXS/US

Große Konstellationen

Loading constellations...